Helicity
60 54 52 55 62 81 136 235 272 222 166 258 285 324 285 192 185 174 151 168 127 158 140 147 121 172 138 202 82 101 127 148 141 83 162 179 254 252 267 298 188 283 308 253
88 64 54 46 48 64 148 263 332 300 407 379 340 335 278 224 162 185 184 169 131 124 184 129 129 151 115 176 129 105 77 100 89 67 103 130 149 219 263 266 194 213 206 266
150 165 165 114 68 47 116 245 346 313 392 434 312 272 277 255 193 149 215 230 147 174 179 173 196 213 117 173 129 118 98 129 138 115 90 183 230 210 185 173 200 225 315 333
149 146 151 150 147 137 152 260 370 333 357 290 236 258 298 259 308 227 217 294 188 203 186 187 211 155 96 195 184 153 133 166 152 131 225 253 265 273 356 311 245 279 341 459
131 127 117 123 137 97 166 302 329 331 338 346 294 285 289 253 212 237 230 172 227 172 167 153 163 231 214 274 278 248 212 184 182 231 363 477 537 427 312 362 356 496 563 623
158 141 123 120 129 143 208 194 262 325 322 345 347 333 371 289 228 218 217 213 170 178 174 308 284 292 513 470 363 332 299 283 252 228 329 289 371 387 352 390 516 438 471 503
177 171 149 145 150 166 198 211 169 226 285 228 324 350 370 494 413 274 332 374 326 334 365 333 309 366 532 600 568 453 343 302 290 296 262 320 414 361 309 341 363 383 422 428
201 205 183 169 164 143 174 182 219 232 311 266 296 304 259 200 198 226 258 300 271 246 221 241 211 265 304 407 464 552 489 299 368 383 494 430 418 395 290 250 292 313 279 221
212 195 162 164 166 125 108 159 132 198 202 256 82 26 -45 -50 44 109 141 208 231 222 183 184 259 357 419 397 433 380 377 419 332 353 375 353 314 282 173 109 107 208 170 132
126 149 112 79 122 116 76 106 146 158 234 224 102 8 21 83 42 30 73 138 169 141 169 245 302 288 267 339 319 301 245 235 256 269 214 224 267 186 30 86 134 117 60 64
86 70 95 82 55 87 48 58 98 106 154 245 189 159 143 91 102 81 89 61 98 140 199 190 203 225 198 159 140 97 116 151 146 133 136 165 112 34 57 63 45 45 53 45
53 49 47 67 73 63 80 104 86 107 89 32 54 46 35 46 29 21 42 30 51 75 85 111 113 144 114 91 97 46 68 17 13 23 27 25 -1 28 -16 -23 -10 11 55 37
-52 -2 23 22 15 -1 -19 70 143 137 199 156 259 218 50 -14 5 37 3 -4 -26 -18 -13 6 31 80 15 33 51 -12 -20 -21 -18 -32 -43 -35 -18 94 9 -62 -18 23 15 14
37 4 22 17 24 8 41 127 95 74 107 191 121 223 191 211 80 22 80 33 -2 48 47 36 -5 -17 -51 -52 -40 -12 -6 -2 -15 -48 -15 -26 56 46 -49 -11 31 33 32 34
10 44 44 -5 -8 37 81 62 136 108 50 47 20 129 196 179 80 21 32 62 113 90 36 -8 -17 -55 -27 -42 10 12 54 51 45 21 74 116 133 128 111 91 68 63 64 55
8 -4 4 12 -30 -50 -3 3 96 84 31 25 -11 85 141 217 89 12 42 46 77 5 -7 -10 -33 -11 -16 -5 -2 42 77 95 174 149 141 192 189 147 193 203 168 126 125 121
46 48 38 36 44 47 23 51 68 64 52 27 6 4 41 100 64 67 49 37 34 29 22 -27 5 -1 41 57 65 131 133 159 155 173 204 164 196 192 154 210 166 133 141 155
50 36 41 48 76 51 90 137 6 46 44 -3 -25 -7 16 18 39 30 57 43 43 -5 16 14 34 52 62 54 170 189 182 131 136 158 243 257 185 134 182 196 199 155 172 177
79 74 78 54 59 76 108 82 67 34 20 28 25 15 33 24 15 46 40 53 39 78 39 31 74 32 66 206 230 197 187 209 201 151 161 177 226 187 168 177 178 204 179 169
63 63 81 83 70 64 64 61 55 40 71 50 81 100 56 55 53 22 19 34 43 64 48 97 108 123 156 192 236 235 198 197 214 221 210 220 203 213 213 221 228 246 221 192
22 21 30 57 24 78 84 60 63 88 83 102 105 105 84 52 44 49 39 44 36 59 74 89 99 145 191 175 191 186 193 195 196 260 237 233 269 264 241 215 207 207 205 206
46 49 29 1 19 56 88 83 88 79 106 96 103 116 101 53 61 55 33 49 53 50 111 92 92 169 177 186 172 156 165 171 174 202 203 189 198 225 233 224 212 198 196 199
25 21 13 43 68 59 114 87 97 88 89 106 63 78 74 63 69 44 55 56 74 111 97 109 167 210 192 166 173 158 159 168 177 176 188 190 182 189 228 221 213 216 222 225
42 10 28 59 77 111 144 184 200 169 185 101 82 87 61 75 84 75 80 98 106 102 118 159 207 183 165 170 156 173 159 151 154 160 164 174 176 175 189 216 234 249 238 217
22 31 57 75 101 124 160 187 186 182 193 118 72 67 76 84 87 109 95 79 108 156 171 187 173 150 136 152 145 137 134 139 147 163 169 168 172 181 182 203 225 241 238 245
12 0 26 64 83 98 122 164 184 187 156 95 88 82 93 105 127 109 132 151 153 194 213 175 140 118 116 137 150 147 145 149 156 158 180 180 184 187 185 182 207 218 242 250
-17 2 46 79 97 152 157 165 159 170 145 109 74 86 111 108 136 145 219 235 274 218 205 175 160 166 127 104 127 136 145 149 147 154 152 172 176 187 185 181 174 205 209 234
Wind_Speed
62 62 59 56 52 53 41 49 61 38 28 46 47 56 54 53 51 49 49 52 56 55 52 61 61 56 51 42 53 63 50 53 56 54 50 53 55 63 57 69 71 67 72 71
66 63 60 58 53 46 43 51 52 41 39 60 62 58 58 48 57 51 51 54 45 45 54 65 50 54 54 42 51 49 44 48 63 60 52 52 55 58 65 73 72 72 74 65
69 69 67 63 58 49 39 49 62 48 43 51 58 62 64 60 50 54 49 53 48 56 60 55 61 61 56 45 49 43 46 52 57 66 78 60 61 69 73 66 76 76 67 57
71 70 67 65 63 57 39 45 58 54 64 61 58 58 64 68 62 49 47 56 54 52 68 63 61 62 64 55 48 43 52 65 59 68 58 55 55 62 65 64 75 74 61 56
73 71 68 68 65 61 48 57 58 55 68 62 62 61 66 63 60 58 64 64 57 59 65 66 74 60 57 60 56 52 52 66 59 62 49 43 56 60 55 56 53 44 46 52
79 76 72 68 66 57 55 53 57 62 71 69 70 69 64 67 66 58 58 64 70 70 68 60 54 43 49 51 57 60 61 64 66 75 47 52 67 64 50 48 52 52 60 56
83 82 76 71 67 59 54 56 60 65 77 69 68 72 70 73 66 68 61 65 65 55 51 42 40 39 46 52 58 61 66 63 60 66 48 72 52 45 41 44 50 49 51 55
87 87 79 71 72 65 54 56 56 61 70 71 69 78 73 65 61 62 64 61 59 61 54 59 64 63 59 56 57 64 66 60 59 59 60 47 53 56 58 59 59 57 62 62
91 88 75 75 69 58 49 57 51 51 59 75 65 67 68 71 71 65 61 59 61 57 55 57 64 65 65 62 60 59 58 56 50 57 62 66 55 58 62 48 68 63 66 69
85 88 81 71 70 56 46 53 48 38 41 54 53 54 57 56 57 57 55 61 59 54 52 52 56 54 48 58 60 65 62 61 60 59 58 54 55 61 54 70 70 74 72 75
82 83 87 75 65 62 50 52 48 31 32 44 48 48 52 50 51 53 55 46 52 51 47 45 47 47 45 44 48 52 55 58 59 57 58 64 59 54 66 63 68 74 74 76
88 83 81 85 79 70 66 67 59 54 53 48 47 53 53 50 46 45 50 41 46 45 38 38 37 39 39 43 48 51 52 52 55 54 55 47 50 47 48 59 72 70 76 83
76 86 86 80 75 76 71 66 54 55 65 73 69 67 64 60 55 43 47 47 43 41 37 34 34 38 39 41 47 44 48 54 50 52 47 60 58 41 58 70 72 70 76 82
61 68 80 90 89 86 78 67 52 61 67 66 61 43 51 23 38 67 53 55 58 57 57 53 49 46 47 46 45 49 47 51 53 47 50 64 42 45 77 79 69 73 77 80
75 56 53 58 64 71 83 85 78 66 64 71 69 58 53 39 58 80 77 75 73 69 66 62 59 54 53 52 50 54 52 51 52 50 49 48 44 48 54 62 69 73 76 79
85 87 73 57 53 53 51 67 68 59 57 60 63 56 60 36 50 79 86 84 82 72 65 63 62 56 52 57 56 52 48 45 38 41 43 38 32 36 39 43 48 58 61 66
69 76 89 91 84 75 67 57 36 21 41 51 57 57 51 39 53 57 63 68 69 69 67 68 62 58 55 59 63 50 42 36 31 29 35 38 39 42 36 36 38 43 46 52
57 62 65 66 69 71 74 66 50 49 56 57 58 52 50 45 46 49 47 54 56 66 61 59 61 54 57 61 52 38 34 29 30 34 29 25 27 32 38 38 41 45 48 52
46 45 46 45 48 50 46 45 57 74 64 59 59 54 48 32 45 40 42 47 54 50 57 56 55 61 64 47 33 32 32 36 26 27 28 29 34 36 40 43 44 45 47 50
43 44 43 45 40 26 39 43 46 51 56 57 58 44 44 39 40 42 40 45 49 50 55 43 54 54 45 36 31 27 27 26 27 29 34 38 38 41 44 45 45 44 45 47
36 41 42 37 31 43 47 49 51 46 50 50 46 45 39 39 40 41 44 42 43 50 49 50 50 54 51 38 32 26 24 25 25 25 25 28 34 38 42 45 46 47 46 47
38 45 48 43 45 47 50 49 44 47 47 39 42 38 36 33 34 38 39 44 45 47 41 47 52 49 42 36 33 29 27 28 27 28 29 30 33 36 39 43 46 48 46 46
40 41 41 42 41 55 55 51 46 42 38 39 32 33 36 35 38 35 39 46 43 36 45 45 42 41 37 35 33 30 29 29 30 30 31 33 34 36 39 42 44 46 47 46
43 45 54 56 49 50 46 43 39 32 32 31 30 32 34 36 39 39 41 39 40 42 40 40 38 33 30 32 34 34 31 31 32 32 33 34 37 39 40 40 42 46 49 47
48 48 56 55 44 38 37 36 38 35 34 35 38 34 37 40 42 43 37 39 39 36 35 32 30 28 28 29 30 30 30 31 30 32 34 34 36 39 40 41 42 43 44 45
55 57 54 48 50 48 47 46 48 44 38 39 41 43 45 47 45 44 41 40 37 34 31 26 26 26 27 28 28 27 28 30 29 30 33 35 36 39 40 41 42 42 43 45
54 54 50 49 48 49 48 46 47 44 48 52 45 55 52 38 44 44 38 36 28 24 25 26 25 25 24 23 24 25 27 28 31 31 32 33 35 36 39 44 44 44 43 43
Wind_Direction
332 330 329 329 327 328 325 321 315 334 338 319 319 311 316 317 315 318 313 313 310 309 314 315 315 313 317 327 324 320 322 317 315 313 314 306 297 290 286 285 288 285 287 287
336 333 331 330 329 327 325 316 314 323 321 307 308 311 309 309 314 312 315 312 311 314 310 314 310 313 320 320 322 322 327 317 317 317 319 313 302 299 291 288 290 286 284 287
338 337 337 334 331 327 320 317 314 322 313 310 309 310 309 307 309 305 306 307 304 309 306 303 308 310 318 319 317 315 317 309 304 304 306 310 304 300 295 290 285 287 287 291
339 337 337 336 332 328 320 315 309 309 307 307 301 304 308 305 306 308 311 309 298 299 306 305 298 302 307 312 316 314 313 305 304 304 306 309 309 309 307 293 289 286 289 291
341 338 335 332 328 326 311 309 311 313 308 306 303 299 304 303 302 305 305 300 301 300 298 299 301 302 308 306 312 310 309 305 308 305 309 309 310 312 308 307 305 303 301 300
342 339 336 335 332 328 314 313 307 298 300 304 302 300 298 300 304 301 304 304 302 301 302 310 313 316 321 316 310 308 307 305 303 297 295 299 297 309 312 312 310 301 293 302
341 339 336 335 333 331 318 313 310 308 304 302 305 308 309 308 307 302 309 313 308 311 318 324 325 326 323 325 324 319 306 305 303 301 297 291 303 316 322 316 310 311 309 309
343 339 338 336 333 328 322 319 311 306 303 308 307 311 311 311 315 311 312 316 315 312 309 303 301 303 304 313 323 325 320 304 301 297 297 300 306 311 307 303 303 313 308 310
348 345 344 342 339 337 333 330 322 313 305 311 313 311 314 311 311 311 314 319 320 317 308 304 301 300 305 306 309 326 327 332 305 304 296 294 306 313 314 310 295 313 311 310
357 357 353 351 351 353 351 343 340 335 325 333 332 326 325 326 322 318 320 321 322 326 314 309 309 307 316 309 312 315 316 316 315 309 302 303 315 319 320 300 300 313 312 311
6 7 10 10 11 14 15 6 7 13 19 5 4 360 350 344 343 335 330 329 332 330 323 319 318 318 321 323 329 320 324 317 315 315 308 301 326 321 312 313 316 314 313 313
19 20 25 29 34 37 45 43 43 48 44 39 31 19 12 7 2 360 354 354 346 343 339 339 341 337 336 331 323 335 325 327 321 321 314 329 331 331 333 328 321 318 316 314
43 41 41 48 60 64 74 78 86 80 68 50 39 25 17 8 28 46 20 18 14 14 18 13 7 0 355 344 345 345 341 346 337 332 332 326 326 331 334 330 325 322 320 318
71 68 60 55 56 56 65 82 92 93 87 80 81 91 83 76 70 66 84 80 68 71 59 54 45 43 38 32 33 21 14 4 356 356 353 342 5 347 333 332 334 329 327 324
54 72 77 77 77 77 72 68 72 77 85 82 83 87 85 86 51 41 42 47 51 54 59 59 57 60 52 47 43 32 31 23 16 11 10 7 2 359 354 348 344 338 334 332
51 44 59 78 84 87 85 71 74 79 87 82 75 85 79 90 51 40 43 51 55 67 68 67 63 64 57 42 36 37 34 33 37 23 20 17 11 10 10 1 354 350 346 342
69 69 58 57 58 65 70 75 89 99 94 78 70 70 77 85 79 76 70 66 66 65 65 58 63 60 59 50 36 41 46 47 45 42 32 22 23 12 6 1 357 356 353 350
80 76 76 75 73 73 71 70 77 84 77 68 67 74 73 72 74 72 72 67 66 52 60 63 59 60 53 40 42 52 51 49 49 46 40 22 9 7 7 8 4 0 357 355
87 87 83 80 75 74 76 79 74 64 69 68 63 61 64 72 67 73 71 64 58 62 52 54 53 47 38 44 50 49 48 47 40 35 28 21 20 13 11 10 7 3 360 359
86 82 79 73 74 87 81 78 74 69 66 67 64 68 67 68 68 65 66 60 56 52 48 60 46 47 51 51 49 46 42 39 38 29 27 26 19 17 14 12 9 7 2 1
85 77 74 82 86 77 73 67 65 63 65 60 59 61 63 65 63 63 60 59 54 46 47 46 43 38 37 43 42 41 39 35 33 31 20 17 16 12 12 11 11 9 7 5
82 79 74 77 68 67 65 62 64 62 60 55 56 55 62 66 68 63 59 55 51 45 48 43 38 36 35 34 32 32 33 31 28 27 20 18 17 16 13 12 12 12 10 9
84 79 77 70 67 60 57 52 57 54 51 53 47 55 60 63 61 63 55 46 46 48 43 42 39 31 25 27 26 25 29 29 26 23 23 21 17 17 16 14 14 14 13 13
78 74 65 64 63 60 60 55 53 55 52 43 49 63 65 62 58 59 54 52 49 47 45 39 28 16 12 19 24 25 23 24 22 21 21 19 18 17 17 18 17 16 16 16
77 73 64 65 70 70 66 63 57 60 56 54 59 66 65 59 60 58 59 53 49 51 37 21 8 360 4 10 16 19 19 19 18 19 19 18 18 17 16 18 18 19 18 18
72 70 74 75 69 65 63 60 55 57 56 61 63 59 56 56 53 52 54 45 47 34 20 356 354 353 0 7 11 14 16 17 15 16 17 17 18 18 17 17 19 21 21 20
71 72 76 73 71 64 61 59 55 55 54 51 58 52 50 55 49 45 46 38 18 351 343 350 356 357 351 358 6 11 13 13 15 15 16 16 17 18 18 18 21 22 22 22